Regional Weather Roundup
Issued by NWS

Home | Current Version | Previous Version | Text Only | Print | Product List | Glossary Off
Versions: 1 2 3 4 5 6 7 8 9 10 11 12 13 14 15 16 17 18 19 20 21 22 23 24 25 26 27 28 29 30 31 32 33 34 35 36 37 38 39 40 41 42 43 44 45 46 47 48 49 50

597
ASUS43 KLOT 302303
RWRIL

ILLINOIS REGIONAL WEATHER ROUNDUP
NATIONAL WEATHER SERVICE CHICAGO/ROMEOVILLE IL
600 PM CDT MON MAY 30 2016

NOTE: "FAIR" INDICATES FEW OR NO CLOUDS BELOW 12,000 FEET WITH NO
SIGNIFICANT WEATHER AND/OR OBSTRUCTIONS TO VISIBILITY.

* THESE STATIONS ARE NOT UNDER NWS QUALITY CONTROL. THEY ALSO MAY NOT
  REPORT WEATHER SUCH AS PRECIPITATION OR FOG.

ILZ001-002-007-009-015-016-024-310000-
NORTHWEST ILLINOIS

CITY           SKY/WX    TMP DP  RH WIND       PRES   REMARKS
MOLINE         SUNNY     87  59  38 SW10      29.93F HX  86
STERLING*      SUNNY     86  59  39 W6        29.95F HX  85
$$

ILZ003-004-008-010-011-017-018-310000-
NORTH CENTRAL ILLINOIS

CITY           SKY/WX    TMP DP  RH WIND       PRES   REMARKS
ROCKFORD       CLOUDY    85  50  29 N7        29.98F HX  83
FREEPORT*      SUNNY     82  48  31 CALM      29.98F HX  80
ROCHELLE*      SUNNY     81  58  45 W6        29.96F HX  81
$$

ILZ005-006-012>014-019>023-310000-
NORTHEAST ILLINOIS

CITY           SKY/WX    TMP DP  RH WIND       PRES   REMARKS
CHICAGO-OHARE  MOSUNNY   83  58  42 E9        29.95S HX  83
CHICAGO-MIDWAY MOSUNNY   82  56  40 E10       29.95F HX  82
AURORA         SUNNY     85  56  37 NW5       29.96F HX  84
LANSING*       MOSUNNY   83  56  39 NE6       29.95F HX  82
WAUKEGAN       SUNNY     73  57  57 E8        29.97S
DUPAGE AIRPORT SUNNY     83  49  30 NW7       29.95F HX  81
WHEELING       SUNNY     81  57  43 E7        29.96F HX  81
NORTHERLY ISL    N/A     69  57  65 NE2         N/A
NORTHERLY ISL    N/A     69  57  65 NE2         N/A
$$

LMZ740>746-310000-
SOUTHERN LAKE MICHIGAN

STATION/POSITION SKY/WX   TEMP    WIND        PRES    VSBY  WAVE
                          AIR SEA DIR/SP/G                  HT/PER
                          (F)     (DEG/KT/KT) (MB)    (MI)  (FT/S)
SOUTHERN BUOY              61 59   90/  4/  4 1015.2          0
WILMETTE HARBOR            63 59  160/  4/  6   N/A           1
HARRISON CRIB              70     160/  4/  4   N/A
BURNHAM HARBOR             70      90/  1/  4   N/A
CALUMET HARBOR             71                   N/A
BURNS HARBOR               69      70/  9/ 10 1015.6S
MICHIGAN CITY              70      30/ 11/ 11   N/A
MICHIGAN CITY 6N           67 62   70/  6/  6   N/A           1
ST. JOSEPH                 69 67   20/  4/  6   N/A           0
$$

ILZ025>027-034>036-040-047-049-050-058-095>099-310000-
WEST-CENTRAL ILLINOIS

CITY           SKY/WX    TMP DP  RH WIND       PRES   REMARKS
QUINCY         CLOUDY    83  63  50 S5        29.97F HX  84
MACOMB*        PTSUNNY   84  62  46 S7        29.98F HX  84
PITTSFIELD*    CLOUDY    83  65  55 S5        29.99S HX  84
$$

ILZ028>032-037-038-041>044-048-051>054-059>061-310000-
CENTRAL ILLINOIS

CITY           SKY/WX    TMP DP  RH WIND       PRES   REMARKS
BLOOMINGTON    CLOUDY    85  62  45 N5        29.99S HX  85
DECATUR        CLOUDY    81  62  52 SW7       29.98F HX  82
PEORIA         MOSUNNY   85  57  38 SW7       29.96F HX  84
LINCOLN*       CLOUDY    87  61  41 W6        29.96F HX  87
SPRINGFIELD    CLOUDY    86  60  41 NW3       29.97F HX  86
TAYLORVILLE    NOT AVBL
$$

ILZ033-039-045-046-055>057-062-063-310000-
EAST-CENTRAL ILLINOIS

CITY           SKY/WX    TMP DP  RH WIND       PRES   REMARKS
CHAMPAIGN      LGT RAIN  81  56  42 CALM      29.98R HX  81
MATTOON        MOSUNNY   78  68  71 CALM      29.98F HX  80
$$

ILZ079-100>102-310000-
SOUTHWEST ILLINOIS

CITY           SKY/WX    TMP DP  RH WIND       PRES   REMARKS
ALTON          PTSUNNY   81  63  54 S6        29.98S HX  82
BELLEVILLE     CLOUDY    83  65  55 SE2       29.97S HX  85
CAHOKIA*       CLOUDY    79  56  45 W6        29.99R HX  80
SPARTA*        MOSUNNY   84  64  51 S5        30.00S HX  85
$$

ILZ064>066-069>071-074>076-080>082-084>086-088>090-092>094-310000-
SOUTH-CENTRAL ILLINOIS

CITY           SKY/WX    TMP DP  RH WIND       PRES   REMARKS
CARBONDALE     CLOUDY    82  61  48 SE12      29.98F HX  83
EFFINGHAM*     CLOUDY    82  67  59 CALM      30.00S HX  84
MARION         PTSUNNY   82  66  57 SE5       30.00F HX  85
MT. VERNON     CLOUDY    86  61  42 CALM      29.99S HX  86
SALEM*         CLOUDY    85  58  39 S3        29.98S HX  84
$$

ILZ067-068-072-073-078-083-087-091-310000-
SOUTHEAST ILLINOIS

CITY           SKY/WX    TMP DP  RH WIND       PRES   REMARKS
LAWRENCEVILLE  SUNNY     87  54  32 CALM      29.98F HX  85
FLORA*         MOSUNNY   86  60  40 CALM      29.99S HX  86
HARRISBURG*    CLOUDY    83  65  53 CALM      29.98F HX  85
ROBINSON*      SUNNY     81  61  51 SE6       29.98S HX  81
$$

ABBREVIATIONS USED IN REMARKS
   TC - TEMPERATURE IN CELSIUS
  WCI - WIND CHILL INDEX
   HX - HEAT INDEX
  VSB - VISIBILITY
$$





USA.gov is the U.S. government's official web portal to all federal, state and local government web resources and services.